Location: Kunchanapalle
(16.4623°N, 80.6176°E)
Time: 13:34:50
(UTC+00:00)

Meteor 1-26 Rocket - Pass Details

Date: 13 August 2020
Orbit: 809 x 926 km, 81.3° (Epoch: 24 September)

Event Time Altitude Azimuth Distance (km) Brightness Sun altitude
Rises 13:56:55 0° 352° (N) 3,337 7.7 -13.1°
Reaches altitude 10° 13:59:18 10° 351° (N) 2,397 6.9 -13.6°
Maximum altitude 14:04:42 79° 266° (W) 824 4.2 -14.8°
Drops below altitude 10° 14:10:04 10° 179° (S) 2,390 6.3 -16.1°
Sets 14:12:28 0° 178° (S) 3,326 7.1 -16.6°
